Home   Weather   Chester   Past weeks

Flag for United Kingdom Past Weather in Chester, England, United Kingdom — Yesterday and Last 2 Weeks

Now
37 °F

Fog.


Feels Like: 31 °F
Forecast: 33 / 47 °F
Wind: 8 mph from Southeast

Location: Hawarden Airport

Current Time: Jan 24, 2017 at 11:17:02 am

Latest Report: Jan 24, 2017 at 10:20 am


Visibility: 5 mi

Pressure: 30.30 "Hg

Humidity: 100%

Dew Point: 37 °F

Location of ChesterLocation

Past Weather in Chester — Graph

°F

Chester Temperature Yesterday

Maximum temperature yesterday: 50 °F (at 2:20 pm)
Minimum temperature yesterday: 30 °F (at 6:20 am)
Average temperature yesterday: 39 °F

High & Low Weather Summary for the Past Weeks

 TemperatureHumidityPressure
High52 °F (Jan 10, 1:50 pm)100% (Jan 9, 11:50 am)30.69 "Hg (Jan 9, 11:50 am)
Low27 °F (Jan 21, 8:20 am)57% (Jan 11, 2:50 pm)29.47 "Hg (Jan 12, 4:20 pm)
Average43 °F89%30.21 "Hg
* Reported Jan 9 9:20 am — Jan 24 9:50 am, Chester, Weather by CustomWeather, © 2017

Note: Actual official high and low records may vary slightly from our data, if they occured in-between our weather recording intervals... More about our weather records

Advertising

Chester Weather History for the Previous 24 Hours

Scroll right to see more
 ConditionsComfort  
Time TempWeatherWind HumidityBarometerVisibility
9:50 am
Tue, Jan 24
36 °FFog.8 mph100%30.30 "Hg5 mi
9:20 am34 °FFog.9 mph100%30.30 "Hg5 mi
8:50 am34 °FFog.7 mph100%30.27 "Hg5 mi
8:20 am32 °FFog.6 mph100%30.27 "Hg5 mi
7:50 am32 °FFog.8 mph100%30.27 "Hg5 mi
7:20 am30 °FClear.7 mph100%30.27 "Hg10 mi
6:50 am30 °FClear.7 mph100%30.27 "Hg10 mi
6:20 am32 °FPassing clouds.5 mph100%30.27 "HgN/A
8:50 pm
Mon, Jan 23
36 °FClear.2 mph100%30.30 "Hg4 mi
8:20 pm36 °FClear.2 mph93%30.30 "Hg5 mi
7:50 pm36 °FClear.2 mph100%30.30 "Hg5 mi
7:20 pm36 °FClear.2 mph100%30.30 "Hg5 mi
6:50 pm37 °FClear.1 mph93%30.30 "Hg5 mi
6:20 pm37 °FClear.2 mph100%30.30 "Hg10 mi
5:50 pm37 °FClear.5 mph93%30.30 "Hg10 mi
5:20 pm41 °FPassing clouds.5 mph93%30.30 "HgN/A
4:50 pm41 °FPassing clouds.6 mph87%30.30 "HgN/A
4:20 pm45 °FPassing clouds.5 mph81%30.30 "HgN/A
3:50 pm48 °FPassing clouds.3 mph82%30.30 "HgN/A
3:20 pm48 °FPassing clouds.2 mph82%30.30 "HgN/A
2:50 pm50 °FPassing clouds.5 mph82%30.30 "HgN/A
2:20 pm50 °FPassing clouds.5 mph82%30.30 "HgN/A
1:50 pm48 °FPassing clouds.5 mph87%30.33 "Hg6 mi
1:20 pm46 °FPassing clouds.5 mph87%30.33 "Hg6 mi
12:50 pm45 °FPassing clouds.5 mph100%30.33 "Hg6 mi
12:20 pm43 °FPassing clouds.6 mph93%30.33 "Hg6 mi
11:50 am39 °FFog.6 mph100%30.33 "Hg3 mi
11:20 am37 °FFog.5 mph100%30.36 "Hg3 mi
Weather by CustomWeather, © 2017

See weather overviewHow to use our weather pages